QPF
0.01 0.01 0.01 0.01 0.01 0.01 0.01 0.01 0.02 0.02 0.02 0.01 0.01 0.01 0.00 0.00 0.01 0.01 0.01 0.02 0.02 0.02 0.02 0.01 0.01 0.01 0.01 0.01 0.01 0.01 0.01 0.01 0.01 0.01 0.01 0.02 0.02 0.02
0.02 0.02 0.02 0.02 0.02 0.01 0.01 0.02 0.02 0.02 0.02 0.01 0.01 0.01 0.01 0.01 0.01 0.01 0.02 0.03 0.02 0.02 0.02 0.02 0.01 0.01 0.02 0.02 0.01 0.01 0.01 0.01 0.01 0.02 0.02 0.02 0.02 0.02
0.02 0.02 0.02 0.02 0.02 0.02 0.02 0.02 0.02 0.02 0.02 0.01 0.01 0.01 0.01 0.01 0.01 0.01 0.02 0.02 0.02 0.02 0.02 0.02 0.01 0.01 0.01 0.02 0.02 0.02 0.02 0.02 0.02 0.02 0.02 0.02 0.02 0.02
0.03 0.02 0.02 0.02 0.02 0.02 0.02 0.02 0.02 0.02 0.02 0.02 0.01 0.01 0.01 0.01 0.01 0.01 0.02 0.02 0.02 0.02 0.02 0.02 0.01 0.01 0.02 0.02 0.02 0.02 0.02 0.01 0.01 0.01 0.01 0.02 0.02 0.02
0.03 0.03 0.02 0.02 0.02 0.02 0.02 0.02 0.02 0.02 0.02 0.02 0.01 0.01 0.01 0.01 0.01 0.01 0.01 0.01 0.01 0.02 0.01 0.01 0.01 0.01 0.01 0.02 0.01 0.01 0.01 0.01 0.01 0.01 0.01 0.01 0.01 0.01
0.04 0.04 0.03 0.02 0.02 0.01 0.02 0.02 0.02 0.02 0.03 0.03 0.02 0.02 0.02 0.02 0.02 0.01 0.01 0.01 0.01 0.01 0.02 0.01 0.01 0.01 0.01 0.01 0.01 0.01 0.01 0.01 0.01 0.01 0.01 0.01 0.01 0.01
0.03 0.03 0.03 0.03 0.02 0.02 0.02 0.02 0.02 0.02 0.03 0.03 0.02 0.02 0.02 0.02 0.02 0.02 0.02 0.02 0.02 0.02 0.02 0.01 0.01 0.01 0.01 0.01 0.00 0.01 0.01 0.01 0.01 0.01 0.01 0.01 0.01 0.01
0.03 0.02 0.03 0.03 0.03 0.02 0.03 0.03 0.03 0.03 0.03 0.03 0.03 0.03 0.02 0.02 0.02 0.02 0.02 0.02 0.03 0.02 0.02 0.01 0.00 0.01 0.01 0.01 0.01 0.01 0.01 0.01 0.01 0.02 0.02 0.02 0.01 0.01
0.02 0.02 0.02 0.02 0.03 0.02 0.02 0.03 0.03 0.03 0.02 0.02 0.02 0.02 0.02 0.02 0.02 0.02 0.02 0.02 0.02 0.02 0.01 0.01 0.01 0.01 0.00 0.01 0.01 0.01 0.01 0.01 0.01 0.02 0.02 0.02 0.02 0.01
0.02 0.01 0.01 0.01 0.02 0.02 0.02 0.02 0.02 0.02 0.02 0.02 0.02 0.01 0.01 0.01 0.01 0.02 0.02 0.02 0.02 0.01 0.01 0.01 0.01 0.01 0.00 0.00 0.01 0.01 0.01 0.01 0.01 0.02 0.02 0.02 0.02 0.02
0.01 0.01 0.01 0.01 0.01 0.01 0.01 0.01 0.01 0.01 0.01 0.01 0.02 0.01 0.02 0.02 0.02 0.02 0.02 0.03 0.02 0.02 0.01 0.01 0.01 0.01 0.01 0.01 0.01 0.01 0.01 0.01 0.01 0.01 0.02 0.02 0.03 0.02
0.01 0.01 0.01 0.01 0.01 0.01 0.01 0.01 0.01 0.01 0.01 0.01 0.01 0.01 0.01 0.02 0.02 0.01 0.02 0.03 0.03 0.02 0.01 0.01 0.01 0.01 0.01 0.01 0.01 0.01 0.01 0.01 0.01 0.01 0.02 0.02 0.02 0.02
0.01 0.01 0.01 0.01 0.01 0.01 0.01 0.01 0.01 0.01 0.01 0.01 0.01 0.02 0.01 0.01 0.01 0.01 0.01 0.02 0.03 0.03 0.01 0.02 0.02 0.02 0.02 0.02 0.01 0.01 0.01 0.01 0.01 0.01 0.01 0.02 0.02 0.02
0.00 0.00 0.00 0.00 0.01 0.01 0.01 0.01 0.01 0.01 0.01 0.01 0.01 0.01 0.01 0.01 0.01 0.01 0.01 0.02 0.02 0.02 0.01 0.01 0.02 0.02 0.03 0.03 0.02 0.01 0.01 0.01 0.00 0.01 0.01 0.01 0.01 0.02
0.00 0.01 0.01 0.01 0.01 0.00 0.01 0.01 0.01 0.01 0.01 0.01 0.01 0.01 0.01 0.01 0.02 0.03 0.03 0.03 0.03 0.02 0.02 0.01 0.02 0.02 0.03 0.03 0.02 0.02 0.01 0.01 0.01 0.01 0.01 0.01 0.01 0.01
0.01 0.01 0.01 0.00 0.00 0.00 0.01 0.01 0.01 0.01 0.01 0.01 0.01 0.01 0.01 0.01 0.02 0.03 0.04 0.04 0.04 0.03 0.02 0.02 0.02 0.02 0.03 0.02 0.02 0.02 0.01 0.01 0.01 0.01 0.01 0.01 0.01 0.01
0.01 0.01 0.01 0.00 0.01 0.01 0.01 0.01 0.01 0.01 0.01 0.01 0.02 0.02 0.02 0.02 0.02 0.03 0.03 0.04 0.04 0.04 0.04 0.03 0.03 0.03 0.03 0.02 0.02 0.02 0.01 0.01 0.01 0.01 0.01 0.01 0.01 0.01
0.02 0.01 0.01 0.01 0.01 0.01 0.01 0.01 0.01 0.01 0.01 0.01 0.02 0.02 0.02 0.02 0.02 0.02 0.03 0.03 0.03 0.04 0.04 0.03 0.03 0.03 0.02 0.02 0.01 0.01 0.01 0.01 0.01 0.01 0.01 0.01 0.01 0.02
0.02 0.01 0.01 0.01 0.01 0.01 0.01 0.01 0.01 0.01 0.01 0.02 0.02 0.02 0.02 0.02 0.02 0.02 0.03 0.03 0.04 0.04 0.04 0.03 0.03 0.03 0.03 0.02 0.01 0.01 0.01 0.01 0.01 0.01 0.01 0.01 0.02 0.02
0.01 0.01 0.01 0.01 0.01 0.01 0.01 0.01 0.01 0.01 0.01 0.02 0.02 0.02 0.02 0.02 0.02 0.02 0.03 0.03 0.03 0.03 0.03 0.03 0.03 0.02 0.02 0.02 0.02 0.01 0.00 0.01 0.01 0.01 0.01 0.01 0.01 0.01
0.01 0.01 0.02 0.01 0.01 0.01 0.01 0.01 0.01 0.01 0.01 0.01 0.01 0.01 0.01 0.01 0.02 0.02 0.03 0.03 0.03 0.03 0.03 0.02 0.02 0.01 0.01 0.01 0.01 0.01 0.01 0.01 0.01 0.01 0.01 0.01 0.01 0.01
0.02 0.02 0.02 0.01 0.01 0.01 0.01 0.02 0.02 0.02 0.01 0.01 0.01 0.01 0.01 0.01 0.02 0.02 0.02 0.02 0.02 0.02 0.02 0.02 0.02 0.01 0.01 0.01 0.01 0.01 0.01 0.01 0.01 0.01 0.01 0.02 0.02 0.02
0.02 0.02 0.02 0.01 0.01 0.01 0.01 0.02 0.02 0.02 0.01 0.01 0.01 0.01 0.01 0.02 0.02 0.02 0.02 0.02 0.02 0.02 0.02 0.02 0.02 0.02 0.01 0.01 0.01 0.01 0.01 0.01 0.01 0.01 0.01 0.01 0.01 0.02
MSLP
1017.69 1018.22 1018.79 1019.37 1019.93 1020.43 1020.84 1021.15 1021.34 1021.42 1021.40 1021.30 1021.13 1020.91 1020.65 1020.37 1020.08 1019.77 1019.44 1019.09 1018.72 1018.33 1017.92 1017.49 1017.04 1016.57 1016.10 1015.63 1015.16 1014.70 1014.26 1013.84 1013.45 1013.09 1012.76 1012.46 1012.18 1011.91
1017.08 1017.65 1018.25 1018.87 1019.45 1019.99 1020.43 1020.77 1020.99 1021.10 1021.10 1021.00 1020.83 1020.60 1020.32 1020.01 1019.68 1019.33 1018.96 1018.57 1018.16 1017.74 1017.29 1016.84 1016.37 1015.90 1015.42 1014.94 1014.48 1014.03 1013.60 1013.20 1012.82 1012.48 1012.16 1011.87 1011.60 1011.35
1016.58 1017.17 1017.80 1018.42 1019.01 1019.55 1020.00 1020.35 1020.59 1020.72 1020.74 1020.67 1020.50 1020.27 1019.99 1019.66 1019.30 1018.91 1018.49 1018.06 1017.61 1017.14 1016.67 1016.18 1015.69 1015.20 1014.71 1014.24 1013.78 1013.34 1012.93 1012.55 1012.20 1011.87 1011.58 1011.31 1011.06 1010.83
1016.19 1016.79 1017.40 1018.01 1018.59 1019.10 1019.55 1019.90 1020.15 1020.29 1020.34 1020.29 1020.15 1019.93 1019.65 1019.32 1018.94 1018.52 1018.08 1017.60 1017.11 1016.61 1016.09 1015.57 1015.06 1014.55 1014.05 1013.57 1013.12 1012.70 1012.30 1011.95 1011.62 1011.33 1011.06 1010.81 1010.58 1010.36
1015.88 1016.48 1017.07 1017.64 1018.18 1018.67 1019.08 1019.42 1019.67 1019.83 1019.89 1019.87 1019.76 1019.57 1019.31 1018.99 1018.61 1018.18 1017.72 1017.22 1016.70 1016.16 1015.62 1015.07 1014.53 1014.00 1013.49 1013.00 1012.55 1012.14 1011.76 1011.43 1011.12 1010.85 1010.60 1010.37 1010.15 1009.94
1015.64 1016.22 1016.78 1017.31 1017.80 1018.24 1018.62 1018.93 1019.17 1019.33 1019.41 1019.42 1019.34 1019.19 1018.96 1018.66 1018.30 1017.89 1017.42 1016.92 1016.39 1015.83 1015.26 1014.69 1014.13 1013.58 1013.05 1012.56 1012.10 1011.69 1011.32 1010.99 1010.70 1010.44 1010.20 1009.97 1009.75 1009.53
1015.45 1016.01 1016.53 1017.01 1017.45 1017.84 1018.18 1018.45 1018.68 1018.84 1018.93 1018.95 1018.91 1018.78 1018.59 1018.33 1018.00 1017.61 1017.17 1016.68 1016.15 1015.59 1015.02 1014.43 1013.85 1013.28 1012.74 1012.23 1011.75 1011.33 1010.95 1010.62 1010.32 1010.06 1009.81 1009.58 1009.35 1009.11
1015.29 1015.82 1016.31 1016.75 1017.14 1017.48 1017.77 1018.02 1018.22 1018.36 1018.45 1018.49 1018.46 1018.37 1018.20 1017.98 1017.68 1017.33 1016.91 1016.45 1015.94 1015.40 1014.83 1014.24 1013.65 1013.07 1012.51 1011.97 1011.48 1011.04 1010.64 1010.29 1009.98 1009.70 1009.43 1009.18 1008.92 1008.65
1015.16 1015.67 1016.13 1016.53 1016.88 1017.18 1017.44 1017.65 1017.81 1017.94 1018.02 1018.05 1018.02 1017.94 1017.80 1017.59 1017.33 1017.01 1016.63 1016.20 1015.72 1015.20 1014.65 1014.07 1013.48 1012.89 1012.32 1011.76 1011.25 1010.78 1010.36 1009.98 1009.64 1009.34 1009.04 1008.76 1008.47 1008.16
1015.05 1015.54 1015.97 1016.35 1016.68 1016.95 1017.17 1017.36 1017.49 1017.59 1017.64 1017.65 1017.61 1017.52 1017.38 1017.18 1016.93 1016.63 1016.28 1015.88 1015.43 1014.94 1014.42 1013.86 1013.28 1012.69 1012.11 1011.55 1011.02 1010.53 1010.09 1009.69 1009.32 1008.99 1008.67 1008.35 1008.03 1007.69
1014.97 1015.44 1015.86 1016.22 1016.53 1016.79 1017.00 1017.15 1017.26 1017.33 1017.35 1017.33 1017.25 1017.13 1016.97 1016.76 1016.51 1016.21 1015.88 1015.50 1015.08 1014.61 1014.11 1013.58 1013.02 1012.44 1011.87 1011.31 1010.78 1010.28 1009.83 1009.41 1009.04 1008.68 1008.34 1008.00 1007.64 1007.27
1014.91 1015.36 1015.77 1016.13 1016.44 1016.69 1016.89 1017.03 1017.12 1017.16 1017.14 1017.08 1016.96 1016.80 1016.60 1016.36 1016.09 1015.78 1015.44 1015.07 1014.66 1014.21 1013.74 1013.23 1012.69 1012.14 1011.59 1011.05 1010.53 1010.04 1009.60 1009.18 1008.80 1008.44 1008.08 1007.72 1007.35 1006.95
1014.87 1015.31 1015.71 1016.07 1016.38 1016.64 1016.84 1016.97 1017.05 1017.06 1017.01 1016.91 1016.75 1016.54 1016.29 1016.01 1015.70 1015.37 1015.01 1014.63 1014.22 1013.79 1013.33 1012.84 1012.33 1011.81 1011.29 1010.78 1010.28 1009.82 1009.39 1009.00 1008.62 1008.27 1007.91 1007.54 1007.15 1006.74
1014.86 1015.27 1015.67 1016.03 1016.35 1016.61 1016.81 1016.95 1017.02 1017.01 1016.94 1016.81 1016.61 1016.36 1016.07 1015.75 1015.40 1015.03 1014.64 1014.24 1013.82 1013.39 1012.93 1012.46 1011.97 1011.48 1010.98 1010.50 1010.04 1009.62 1009.22 1008.84 1008.49 1008.14 1007.79 1007.42 1007.02 1006.59
1014.85 1015.25 1015.63 1015.98 1016.30 1016.57 1016.78 1016.93 1017.00 1016.99 1016.91 1016.76 1016.54 1016.26 1015.94 1015.58 1015.20 1014.79 1014.37 1013.95 1013.50 1013.05 1012.59 1012.12 1011.64 1011.16 1010.69 1010.24 1009.81 1009.42 1009.05 1008.70 1008.36 1008.03 1007.68 1007.31 1006.91 1006.47
1014.85 1015.21 1015.58 1015.92 1016.24 1016.51 1016.72 1016.88 1016.95 1016.96 1016.88 1016.73 1016.50 1016.22 1015.88 1015.50 1015.09 1014.66 1014.22 1013.76 1013.29 1012.82 1012.33 1011.85 1011.37 1010.89 1010.43 1009.99 1009.58 1009.20 1008.85 1008.52 1008.20 1007.88 1007.53 1007.16 1006.76 1006.31
1014.82 1015.16 1015.50 1015.83 1016.13 1016.40 1016.61 1016.77 1016.86 1016.88 1016.82 1016.68 1016.48 1016.20 1015.87 1015.49 1015.08 1014.64 1014.17 1013.68 1013.19 1012.68 1012.17 1011.66 1011.15 1010.66 1010.19 1009.75 1009.33 1008.96 1008.61 1008.28 1007.96 1007.64 1007.31 1006.94 1006.53 1006.09
1014.76 1015.07 1015.39 1015.69 1015.98 1016.23 1016.44 1016.61 1016.71 1016.74 1016.71 1016.60 1016.43 1016.18 1015.88 1015.52 1015.11 1014.67 1014.19 1013.69 1013.17 1012.63 1012.08 1011.54 1011.00 1010.47 1009.97 1009.50 1009.07 1008.68 1008.32 1007.98 1007.66 1007.34 1007.00 1006.64 1006.24 1005.81
1014.65 1014.94 1015.24 1015.52 1015.78 1016.02 1016.23 1016.39 1016.50 1016.55 1016.54 1016.47 1016.33 1016.13 1015.86 1015.53 1015.15 1014.72 1014.25 1013.74 1013.20 1012.63 1012.05 1011.47 1010.89 1010.32 1009.79 1009.29 1008.82 1008.40 1008.02 1007.67 1007.34 1007.02 1006.69 1006.34 1005.97 1005.56
1014.49 1014.78 1015.05 1015.32 1015.56 1015.78 1015.97 1016.13 1016.24 1016.31 1016.33 1016.29 1016.19 1016.03 1015.80 1015.51 1015.16 1014.76 1014.30 1013.79 1013.24 1012.66 1012.06 1011.44 1010.83 1010.23 1009.66 1009.13 1008.64 1008.19 1007.79 1007.43 1007.09 1006.77 1006.46 1006.14 1005.80 1005.44
1014.30 1014.58 1014.85 1015.10 1015.33 1015.53 1015.71 1015.85 1015.96 1016.04 1016.07 1016.06 1015.99 1015.87 1015.68 1015.44 1015.13 1014.75 1014.32 1013.83 1013.28 1012.70 1012.09 1011.47 1010.84 1010.22 1009.63 1009.08 1008.57 1008.11 1007.70 1007.34 1007.01 1006.71 1006.42 1006.14 1005.84 1005.54
1014.07 1014.36 1014.63 1014.87 1015.09 1015.28 1015.44 1015.57 1015.68 1015.75 1015.79 1015.80 1015.76 1015.66 1015.52 1015.31 1015.03 1014.70 1014.29 1013.83 1013.32 1012.76 1012.16 1011.55 1010.93 1010.32 1009.74 1009.19 1008.69 1008.24 1007.85 1007.50 1007.20 1006.92 1006.67 1006.43 1006.19 1005.95
1013.81 1014.11 1014.39 1014.64 1014.85 1015.03 1015.18 1015.30 1015.40 1015.47 1015.52 1015.53 1015.50 1015.43 1015.31 1015.13 1014.90 1014.60 1014.24 1013.82 1013.35 1012.83 1012.28 1011.71 1011.13 1010.57 1010.02 1009.51 1009.05 1008.64 1008.28 1007.96 1007.69 1007.46 1007.25 1007.06 1006.87 1006.67
Thickness
5484 5483 5482 5481 5479 5477 5475 5473 5469 5468 5470 5472 5471 5471 5470 5469 5468 5468 5467 5465 5465 5464 5464 5463 5462 5462 5461 5460 5459 5459 5458 5457 5457 5457 5457 5457 5457 5458
5474 5473 5472 5470 5469 5467 5465 5463 5461 5459 5459 5461 5460 5459 5458 5458 5457 5457 5456 5455 5454 5454 5454 5453 5453 5452 5451 5450 5449 5448 5448 5447 5447 5446 5446 5446 5446 5447
5465 5463 5462 5460 5458 5457 5455 5453 5451 5449 5448 5449 5448 5447 5447 5446 5446 5446 5446 5445 5445 5444 5444 5443 5443 5442 5441 5440 5439 5438 5438 5437 5437 5436 5436 5436 5435 5436
5455 5453 5452 5450 5449 5447 5445 5443 5441 5440 5438 5437 5437 5436 5435 5436 5435 5436 5436 5435 5435 5434 5434 5434 5433 5432 5431 5430 5429 5428 5428 5427 5427 5426 5426 5425 5425 5425
5444 5443 5442 5440 5439 5438 5436 5434 5432 5431 5429 5428 5428 5426 5426 5425 5425 5425 5425 5425 5425 5425 5424 5424 5423 5422 5421 5420 5419 5419 5418 5418 5417 5416 5415 5415 5415 5415
5434 5434 5432 5431 5430 5428 5426 5424 5422 5420 5419 5418 5418 5417 5416 5415 5414 5413 5414 5414 5414 5415 5415 5414 5413 5412 5412 5411 5410 5409 5408 5407 5407 5406 5406 5406 5406 5406
5424 5424 5423 5422 5421 5420 5417 5415 5413 5411 5409 5408 5407 5406 5405 5403 5402 5403 5402 5403 5404 5405 5404 5404 5404 5404 5402 5401 5400 5399 5398 5398 5397 5396 5396 5397 5397 5397
5414 5414 5413 5412 5411 5410 5409 5407 5404 5402 5400 5398 5397 5396 5395 5394 5393 5392 5391 5392 5393 5395 5394 5395 5394 5393 5392 5391 5391 5390 5389 5388 5387 5387 5388 5388 5389 5390
5404 5404 5404 5403 5401 5399 5398 5397 5395 5393 5392 5390 5389 5387 5386 5385 5383 5382 5382 5382 5383 5384 5383 5384 5384 5383 5383 5382 5382 5381 5380 5379 5379 5379 5379 5380 5381 5382
5396 5395 5394 5392 5391 5390 5389 5387 5385 5384 5383 5382 5381 5380 5378 5377 5375 5374 5373 5374 5374 5375 5374 5374 5374 5374 5375 5374 5373 5372 5372 5371 5370 5370 5371 5372 5373 5374
5387 5386 5385 5383 5383 5382 5380 5379 5377 5375 5374 5373 5372 5371 5369 5368 5367 5366 5365 5364 5366 5367 5366 5364 5365 5365 5366 5366 5365 5363 5363 5362 5362 5362 5363 5364 5365 5366
5378 5377 5376 5375 5374 5373 5371 5369 5368 5366 5365 5364 5363 5362 5361 5360 5359 5357 5357 5356 5356 5357 5357 5355 5355 5354 5355 5357 5356 5355 5354 5353 5353 5353 5354 5355 5355 5357
5370 5368 5367 5367 5366 5364 5363 5361 5360 5359 5357 5355 5354 5353 5352 5351 5350 5350 5349 5348 5348 5348 5348 5346 5346 5344 5342 5345 5347 5346 5345 5345 5345 5345 5345 5346 5347 5348
5361 5360 5359 5358 5357 5356 5355 5354 5352 5350 5348 5346 5345 5343 5343 5342 5342 5341 5341 5341 5341 5341 5340 5339 5337 5336 5335 5335 5337 5338 5337 5337 5337 5337 5337 5338 5339 5339
5353 5352 5351 5350 5349 5348 5347 5345 5343 5341 5339 5338 5337 5336 5335 5334 5334 5334 5334 5334 5334 5334 5333 5332 5331 5329 5328 5328 5329 5329 5329 5330 5330 5330 5330 5331 5331 5332
5345 5344 5343 5342 5340 5340 5338 5337 5335 5333 5332 5330 5329 5328 5327 5327 5326 5326 5326 5326 5326 5326 5326 5326 5325 5324 5323 5322 5322 5322 5322 5322 5323 5323 5323 5324 5325 5325
5338 5336 5335 5333 5332 5331 5330 5329 5328 5326 5325 5323 5322 5321 5320 5320 5319 5319 5319 5319 5319 5319 5320 5320 5319 5318 5318 5317 5317 5317 5317 5317 5317 5317 5317 5319 5320 5320
5332 5330 5328 5327 5326 5325 5324 5323 5322 5320 5319 5318 5316 5315 5315 5314 5314 5314 5313 5313 5313 5313 5313 5313 5313 5312 5312 5313 5313 5313 5312 5312 5312 5312 5312 5313 5315 5316
5326 5324 5323 5322 5321 5319 5318 5317 5316 5315 5314 5313 5312 5311 5310 5310 5309 5309 5309 5308 5308 5308 5308 5307 5307 5306 5307 5307 5308 5309 5307 5308 5307 5307 5307 5308 5309 5311
5321 5320 5319 5318 5316 5315 5314 5313 5312 5311 5310 5309 5308 5307 5307 5306 5305 5305 5304 5304 5304 5304 5304 5303 5302 5301 5301 5301 5301 5303 5304 5303 5303 5303 5304 5304 5305 5307
5317 5316 5315 5314 5313 5312 5310 5309 5308 5307 5306 5305 5305 5304 5303 5303 5302 5301 5301 5301 5300 5300 5300 5299 5299 5299 5298 5297 5297 5299 5301 5301 5300 5300 5300 5301 5302 5303
5315 5313 5312 5311 5310 5309 5308 5307 5305 5304 5304 5303 5302 5302 5301 5300 5300 5299 5299 5298 5297 5297 5297 5296 5296 5296 5295 5295 5294 5295 5297 5298 5298 5298 5298 5298 5297 5298
5312 5311 5310 5309 5308 5306 5305 5304 5304 5303 5302 5301 5300 5300 5299 5298 5298 5297 5297 5296 5295 5294 5293 5293 5293 5293 5293 5292 5292 5292 5293 5294 5295 5296 5297 5297 5297 5297